EW5860 Weather Reports


time (UTC)temp
C
wind
direction
speed
KPH
gust
KPH
rain 1hr
cm
rain 24hr
cm
rain mn
cm
humidity
%
barometer
mb
20260506193026 17 209 6.4 20.9 0.00 0.56 0.56 89 1006.6
20260506191524 17 136 4.8 16.1 0.05 0.56 0.56 92 1006.7
20260506190032 16 208 8.0 25.7 0.05 0.56 0.56 93 1006.8
20260506184522 16 187 6.4 16.1 0.05 0.56 0.56 94 1007.0
20260506183020 16 190 9.7 27.4 0.05 0.56 0.56 94 1007.4
20260506181518 16 242 6.4 29.0 0.00 0.51 0.51 92 1007.5
20260506180018 16 178 9.7 25.7 0.00 0.51 0.51 90 1007.5
20260506174518 16 224 6.4 19.3 0.00 0.51 0.51 90 1007.7
20260506173016 16 128 8.0 24.1 0.00 0.51 0.51 90 1007.5
20260506171516 16 199 9.7 29.0 0.03 0.51 0.51 91 1007.4
20260506170014 16 223 9.7 22.5 0.03 0.51 0.51 91 1007.8
20260506164514 16 213 9.7 29.0 0.05 0.51 0.51 92 1007.7
20260506163022 16 175 6.4 17.7 0.08 0.51 0.51 93 1007.5
20260506161512 15 148 6.4 19.3 0.15 0.48 0.48 93 1007.3
20260506160008 15 225 8.0 20.9 0.20 0.48 0.48 92 1007.9
20260506154522 15 218 4.8 20.9 0.23 0.46 0.46 93 1008.6
20260506153003 15 194 4.8 12.9 0.23 0.43 0.43 92 1008.6
20260506151600 16 280 4.8 16.1 0.23 0.36 0.36 92 1008.9
20260506150058 16 217 6.4 16.1 0.23 0.28 0.28 91 1008.6
20260506144557 16 219 6.4 12.9 0.20 0.23 0.23 91 1008.8
20260506143057 16 206 3.2 17.7 0.20 0.20 0.20 90 1008.6
20260506141554 16 234 1.6 16.1 0.13 0.13 0.13 88 1008.6
20260506140051 16 167 3.2 16.1 0.05 0.05 0.05 87 1008.6
20260506134550 17 202 8.0 22.5 0.03 0.03 0.03 85 1008.5
20260506133050 17 213 4.8 12.9 0.00 0.00 0.00 84 1008.5
20260506131547 17 267 3.2 14.5 0.00 0.00 0.00 84 1008.8
20260506130047 17 229 8.0 17.7 0.00 0.00 0.00 82 1008.8
20260506124546 17 198 12.9 27.4 0.00 0.00 0.00 80 1008.9
20260506123041 18 233 11.3 25.7 0.00 0.00 0.00 78 1008.7
20260506121547 18 175 14.5 27.4 0.00 0.00 0.00 77 1008.6
20260506120041 18 166 14.5 30.6 0.00 0.00 0.00 76 1008.3
20260506114541 18 232 12.9 29.0 0.00 0.00 0.00 77 1008.2
20260506113038 18 214 9.7 25.7 0.00 0.00 0.00 77 1008.1
20260506111536 18 203 9.7 27.4 0.00 0.00 0.00 76 1008.0
20260506110037 18 209 12.9 35.4 0.00 0.00 0.00 76 1008.1
20260506104534 18 222 11.3 33.8 0.00 0.00 0.00 76 1007.7
20260506103031 18 213 9.7 37.0 0.00 0.00 0.00 75 1007.6
20260506101530 18 218 14.5 30.6 0.00 0.00 0.00 75 1007.8
20260506100030 18 229 14.5 22.5 0.00 0.00 0.00 74 1007.7
20260506094523 18 254 11.3 35.4 0.00 0.00 0.00 74 1007.8
20260506093022 18 229 11.3 33.8 0.00 0.00 0.00 74 1007.8
20260506091520 18 194 12.9 24.1 0.00 0.00 0.00 74 1007.7
20260506090016 18 212 12.9 24.1 0.00 0.00 0.00 73 1007.9
20260506084517 19 211 14.5 29.0 0.00 0.00 0.00 72 1008.0
20260506083016 19 167 12.9 30.6 0.00 0.00 0.00 71 1008.0
20260506081509 19 214 9.7 24.1 0.00 0.00 0.00 71 1008.0
20260506073006 19 196 9.7 19.3 0.00 0.00 0.00 68 1008.1
20260506071601 19 227 6.4 19.3 0.00 0.00 0.00 67 1008.2
20260506061552 20 212 9.7 29.0 0.00 0.00 0.00 62 1008.8
20260506050104 20 199 3.2 14.5 0.00 0.00 0.00 58 1009.3
20260506044543 20 205 8.0 17.7 0.00 0.00 0.00 58 1009.2
20260506043036 20 209 3.2 17.7 0.00 0.00 0.00 57 1009.2
20260506041549 20 214 3.2 17.7 0.00 0.00 0.00 57 1009.3
20260506040033 20 227 8.0 16.1 0.00 0.00 0.00 57 1009.2
20260506034546 21 209 3.2 14.5 0.00 0.00 0.00 56 1009.2
20260506033031 21 205 6.4 16.1 0.00 0.00 0.00 56 1009.2
20260506031530 21 196 8.0 16.1 0.00 0.00 0.00 55 1009.1
20260506030032 21 188 4.8 19.3 0.00 0.00 0.00 55 1009.1
20260506024530 21 202 6.4 19.3 0.00 0.00 0.00 54 1009.2
20260506023028 21 119 4.8 12.9 0.00 0.00 0.00 53 1009.2
20260506021528 21 217 6.4 16.1 0.00 0.00 0.00 52 1009.2
20260506020027 22 250 3.2 16.1 0.00 0.00 0.00 50 1009.1
20260506014526 22 238 9.7 20.9 0.00 0.00 0.00 49 1009.0
20260506013037 22 206 8.0 19.3 0.00 0.00 0.00 48 1009.0
20260506011527 22 254 3.2 16.1 0.00 0.00 0.00 46 1008.8
20260506010026 23 209 3.2 12.9 0.00 0.00 0.00 45 1008.7
20260506004524 23 242 3.2 12.9 0.00 0.00 0.00 44 1008.5
20260506003024 23 241 1.6 12.9 0.00 0.00 0.00 43 1008.4
20260506001523 24 180 11.3 22.5 0.00 0.00 0.00 42 1008.3
20260506000023 24 173 8.0 16.1 0.00 0.00 0.00 42 1008.1
20260505234522 24 230 3.2 12.9 0.00 0.00 0.00 41 1008.1
20260505233027 25 229 3.2 19.3 0.00 0.00 0.00 41 1007.8
20260505231523 25 211 6.4 12.9 0.00 0.00 0.00 41 1007.8
20260505230021 25 162 3.2 17.7 0.00 0.00 0.00 40 1007.8
20260505224520 25 231 9.7 22.5 0.00 0.00 0.00 38 1007.8
20260505223019 26 238 9.7 27.4 0.00 0.00 0.00 38 1007.9
20260505221519 26 114 14.5 29.0 0.00 0.00 0.00 36 1007.7
20260505220030 26 183 12.9 27.4 0.00 0.00 0.00 36 1007.7
20260505214522 26 217 12.9 30.6 0.00 0.00 0.00 37 1007.6
20260505213017 26 220 12.9 33.8 0.00 0.00 0.00 36 1007.7
20260505211517 26 193 6.4 33.8 0.00 0.00 0.00 37 1007.5
20260505210016 26 120 11.3 33.8 0.00 0.00 0.00 37 1007.5
20260505204515 26 219 11.3 30.6 0.00 0.00 0.00 37 1007.6
20260505203015 26 236 9.7 30.6 0.00 0.00 0.00 38 1007.7
20260505201512 26 217 14.5 27.4 0.00 0.00 0.00 37 1007.8
20260505200016 26 180 16.1 33.8 0.00 0.00 0.00 37 1008.1
20260505194511 26 238 12.9 30.6 0.00 0.00 0.00 37 1008.0